Weather History for Fort Wayne, IN

Change the Weather History Date:

Sunday, May 6, 2012

  Actual Average Record
Temperature  
Mean Temperature 65 °F 57 °F  
Max Temperature 78 °F 69 °F 88 °F (1949)
Min Temperature 51 °F 46 °F 30 °F (1968)
Degree Days  
Heating Degree Days 0 8  
Month to date heating degree days 4 55  
Since 1 July heating degree days 4805 5937  
Cooling Degree Days 0 1  
Month to date cooling degree days 24 2  
Year to date cooling degree days 56 10  
Growing Degree Days 14 (Base 50)    
Moisture  
Dew Point 47 °F    
Average Humidity 61    
Maximum Humidity 86    
Minimum Humidity 36    
Precipitation  
Precipitation T in 0.11 in 0.95 in (1948)
Month to date precipitation 0.41 0.67  
Year to date precipitation 9.70 11.20  
Snow  
Snow 0.00 in 0.00 in T in (1989)
Month to date snowfall 0.0 0.0  
Since 1 July snowfall 32.2 33.5  
Snow Depth 0.00 in    
Sea Level Pressure  
Sea Level Pressure 30.02 in    
Wind  
Wind Speed 10 mph (East)    
Max Wind Speed 16 mph    
Max Gust Speed 21 mph    
Visibility 10 miles    
Events      
T = Trace of Precipitation, MM = Missing Value Source: NWS Daily Summary

Daily Weather History Graph

Daily Weather History Graph

Search for Another Location

Airport:

Trip Planner

Search our weather history database for the weather conditions in past years. The results will help you decide how hot, cold, wet, or windy it might be!

Date:

Astronomy

May. 06, 2012 Rise Set
Actual Time 6:32 AM EDT 8:43 PM EDT
Civil Twilight 6:01 AM EDT 9:13 PM EDT
Nautical Twilight 5:24 AM EDT 9:51 PM EDT
Astronomical Twilight 4:43 AM EDT 10:32 PM EDT
Moon 9:48 PM EDT (5/6) 6:41 AM EDT (5/6)
Length of Visible Light 15h 11m
Length of Day
14h 11m
Full, 100% of the Moon is Illuminated
May 6
Full
May 12
Last Quarter
May 20
New
May 28
First Quarter
Jun 4
Full

Hourly Weather History & Observations

Time (EDT) Temp. Dew Point Humidity Pressure Visibility Wind Dir Wind Speed Gust Speed Precip Events Conditions
12:54 AM 59.0 °F 53.1 °F 81% 30.06 in 10.0 mi East 8.1 mph - N/A   Partly Cloudy
1:54 AM 57.0 °F 53.1 °F 87% 30.04 in 10.0 mi East 8.1 mph - N/A   Partly Cloudy
2:54 AM 55.0 °F 48.9 °F 80% 30.02 in 10.0 mi ESE 5.8 mph - N/A   Partly Cloudy
3:54 AM 53.1 °F 46.9 °F 80% 30.03 in 10.0 mi ENE 4.6 mph - N/A   Partly Cloudy
4:54 AM 52.0 °F 46.0 °F 80% 30.04 in 10.0 mi NNE 5.8 mph - N/A   Partly Cloudy
5:54 AM 52.0 °F 46.9 °F 83% 30.06 in 10.0 mi ENE 9.2 mph - N/A   Scattered Clouds
6:54 AM 52.0 °F 46.0 °F 80% 30.06 in 10.0 mi ENE 9.2 mph - N/A   Mostly Cloudy
7:54 AM 55.4 °F 46.4 °F 72% 30.09 in 10.0 mi ENE 12.7 mph - N/A   Scattered Clouds
8:54 AM 57.9 °F 46.9 °F 67% 30.10 in 10.0 mi ENE 9.2 mph - N/A   Mostly Cloudy
9:54 AM 63.0 °F 46.9 °F 56% 30.09 in 10.0 mi ENE 9.2 mph - N/A   Mostly Cloudy
10:54 AM 66.9 °F 46.0 °F 47% 30.06 in 10.0 mi ESE 12.7 mph - N/A   Mostly Cloudy
11:54 AM 71.1 °F 46.0 °F 41% 30.05 in 10.0 mi East 11.5 mph - N/A   Mostly Cloudy
12:54 PM 73.9 °F 46.9 °F 38% 30.04 in 10.0 mi East 9.2 mph - N/A   Mostly Cloudy
1:54 PM 77.0 °F 48.9 °F 37% 30.04 in 10.0 mi East 10.4 mph - N/A   Overcast
2:54 PM 77.0 °F 51.1 °F 40% 30.04 in 10.0 mi Variable 6.9 mph - N/A   Overcast
3:54 PM 77.0 °F 51.1 °F 40% 30.01 in 10.0 mi East 10.4 mph - N/A   Overcast
4:54 PM 75.9 °F 52.0 °F 43% 29.99 in 10.0 mi East 9.2 mph - N/A   Overcast
5:54 PM 77.0 °F 52.0 °F 42% 29.98 in 10.0 mi East 9.2 mph - N/A   Overcast
6:54 PM 75.0 °F 51.1 °F 43% 29.95 in 10.0 mi East 10.4 mph - N/A   Mostly Cloudy
7:54 PM 71.1 °F 46.9 °F 42% 29.96 in 10.0 mi East 11.5 mph - N/A   Mostly Cloudy
8:54 PM 66.0 °F 42.1 °F 42% 29.96 in 10.0 mi East 10.4 mph - N/A   Mostly Cloudy
9:54 PM 66.0 °F 42.1 °F 42% 29.94 in 10.0 mi East 11.5 mph - N/A   Overcast
10:54 PM 63.0 °F 39.9 °F 43% 29.94 in 10.0 mi East 13.8 mph - N/A   Overcast
11:54 PM 61.0 °F 39.9 °F 46% 29.89 in 10.0 mi East 12.7 mph - 0.00 in   Overcast